This is the latest recevied weather packets stored in our database for station/object AI5BL. If no packets are shown the sender has not sent any weather packets the latest 10 day(s).
| Time | Temp. | Humidity | Pressure | Rain* | Wind** | Luminosity | Snow |
|---|---|---|---|---|---|---|---|
| 1777467376 | 21.67° C | 98% | 1017.7 hPa | 0 mm | - | 26 W/m² | - |
| 1777467072 | 21.67° C | 98% | 1017.8 hPa | 0 mm | - | 26 W/m² | - |
| 1777466769 | 21.67° C | 98% | 1017.9 hPa | 0 mm | - | 26 W/m² | - |
| 1777466467 | 21.67° C | 98% | 1017.6 hPa | 0 mm | - | 26 W/m² | - |
| 1777466163 | 21.67° C | 98% | 1017.8 hPa | 0 mm | - | 33 W/m² | - |
| 1777465859 | 21.11° C | 98% | 1017.5 hPa | 0 mm | - | 36 W/m² | - |
| 1777465556 | 21.11° C | 98% | 1017.5 hPa | 0 mm | - | 44 W/m² | - |
| 1777465250 | 21.11° C | 98% | 1017.4 hPa | 0 mm | - | 37 W/m² | - |
| 1777464945 | 21.11° C | 98% | 1017.4 hPa | 0 mm | - | 24 W/m² | - |
| 1777464640 | 21.11° C | 98% | 1017.3 hPa | 0 mm | - | 24 W/m² | - |
| 1777464337 | 21.11° C | 98% | 1017.2 hPa | 0 mm | - | 22 W/m² | - |
| 1777464032 | 21.11° C | 98% | 1017.1 hPa | 0 mm | - | 17 W/m² | - |
| 1777463727 | 21.11° C | 98% | 1016.9 hPa | 0 mm | - | 13 W/m² | - |
| 1777463422 | 21.11° C | 98% | 1017.2 hPa | 0 mm | - | 9 W/m² | - |
| 1777463118 | 20.56° C | 98% | 1017.1 hPa | 0 mm | - | 6 W/m² | - |
| 1777462815 | 20.56° C | 98% | 1017.3 hPa | 0 mm | - | 4 W/m² | - |
| 1777462509 | 20.56° C | 98% | 1017.2 hPa | 0 mm | - | 3 W/m² | - |
| 1777462206 | 20.56° C | 98% | 1017 hPa | 0 mm | - | 1 W/m² | - |
| 1777461903 | 20.56° C | 98% | 1016.9 hPa | 0 mm | - | 1 W/m² | - |
| 1777461600 | 20.56° C | 98% | 1017.1 hPa | 0 mm | - | 1 W/m² | - |
| 1777461295 | 20.56° C | 98% | 1017.1 hPa | 0 mm | - | 1 W/m² | - |
| 1777460990 | 20.56° C | 98% | 1016.8 hPa | 0 mm | - | 1 W/m² | - |
| 1777460687 | 20.56° C | 98% | 1016.6 hPa | 0 mm | - | 0 W/m² | - |
| 1777460383 | 20.56° C | 98% | 1016.5 hPa | 0 mm | - | 0 W/m² | - |
| 1777460078 | 20.56° C | 98% | 1016.9 hPa | 0 mm | - | 0 W/m² | - |
* Rain latest hour (hover to see other rain measurements)
** Current wind speed in m/s (hover to see current wind gust speed)